Regional Weather Roundup
Issued by NWS

Home | Current Version | Previous Version | Graphics & Text | Print | Product List | Glossary On
Versions: 1 2 3 4 5 6 7 8 9 10 11 12 13 14 15 16 17 18 19 20 21 22 23 24 25 26 27 28 29 30 31 32 33 34 35 36 37 38 39 40 41 42 43 44 45 46 47 48 49 50
000
ASUS43 KDMX 280507
RWRIA

WEATHER ROUNDUP FOR IOWA
NATIONAL WEATHER SERVICE DES MOINES IA
1200 AM CDT TUE JUL 28 2015

NOTE: "FAIR" INDICATES FEW OR NO CLOUDS BELOW 12,000 FEET WITH NO
SIGNIFICANT WEATHER AND/OR OBSTRUCTIONS TO VISIBILITY.

* - THESE STATIONS ARE NOT NWS STATIONS...THUS NOT UNDER NWS
QUALITY CONTROL.  THEY ALSO DO NOT REPORT WEATHER SUCH
AS PRECIPITATION OR FOG.

IAZ001>003-012>014-020>022-031>034-043>046-280600-
   NORTHWEST IOWA

CITY           SKY/WX    TMP DP  RH WIND       PRES   REMARKS
CARROLL *      CLOUDY    72  70  94 SE7       29.89S
CHEROKEE *     MOCLDY    73  70  88 SE6       29.87S
DENISON *      CLOUDY    75  70  83 S18G26    29.85S
LE MARS *      CLEAR     75  70  83 SE8       29.83F
ORANGE CITY *  PTCLDY    72  66  83 SE6       29.85F
SHELDON *      PTCLDY    72  68  88 SE12G17   29.84F
SIOUX CITY     PTCLDY    76  69  79 SE10      29.82F
SPENCER        PTCLDY    73  66  78 SE12      29.89S
STORM LAKE *   CLEAR     72  68  88 SE10      29.89S
$$

IAZ055>058-069>071-079>083-090>094-280600-
   SOUTHWEST IOWA

CITY           SKY/WX    TMP DP  RH WIND       PRES   REMARKS
ATLANTIC *     CLOUDY    75  70  83 S7        29.88F
AUDUBON *      CLEAR     73  70  88 SE7       29.90F
CLARINDA *     CLEAR     75  70  83 S8        29.91S
COUNCIL BLFS * CLEAR     75  72  88 SE14      29.86S
CRESTON *      CLEAR     73  70  88 S12G17    29.91F
HARLAN  *      CLEAR     75  75 100 S8        29.91S
LAMONI         CLEAR     75  70  84 SE8       29.92S
RED OAK *      PTCLDY    75  70  83 SE9       29.87F
SHENANDOAH *   CLEAR     77  72  83 SE13      29.87F
$$

IAZ047>049-059>061-072>074-084-280600-
   CENTRAL IOWA

CITY           SKY/WX    TMP DP  RH WIND       PRES   REMARKS
AMES           PTCLDY    70  68  93 SE5       29.92S
ANKENY *       PTCLDY    72  70  94 CALM      29.91S
CHARITON *     CLEAR     73  72  94 SE8       29.92S
DES MOINES     PTCLDY    74  69  85 SE6       29.91S
GRINNELL*      CLEAR     72  70  94 E6        29.94S FOG
KNOXVILLE *    MOCLDY    73  70  88 SE7       29.91S
MARSHALLTOWN     N/A     71  70  96 SE6       29.93S
PELLA *        PTCLDY    71  71 100 SE5       29.93S
PERRY *          N/A     72  70  94 SE6       29.90F
$$

IAZ004>006-015-016-023>025-035-036-280600-
   NORTH CENTRAL IOWA

CITY           SKY/WX    TMP DP  RH WIND       PRES   REMARKS
ALGONA *       CLEAR     70  68  94 SE12      29.91F
CLARION *      PTCLDY    70  68  94 SE8       29.93F
ESTHERVILLE    CLEAR     69  67  93 SE9       29.90F
FORT DODGE *   PTCLDY    70  66  88 SE5       29.92F
MASON CITY     CLEAR     71  70  96 SE8       29.96S
FOREST CITY *  CLEAR     70  70 100 SE9       29.94S
IOWA FALLS *     N/A     70  68  94 SE5       29.95S
$$

IAZ007>011-017>019-026>030-037>042-050>054-066-280600-
   NORTHEAST IOWA

CITY           SKY/WX    TMP DP  RH WIND       PRES   REMARKS
CEDAR RAPIDS   PTCLDY    72  72 100 E5        29.94F
CHARLES CITY * CLEAR     73  73 100 SE7       29.97S
CLINTON *      PTCLDY    72  68  88 E6        29.98S
DECORAH *      CLEAR     72  70  94 SE3       29.97S
DUBUQUE        PTCLDY    74  71  91 SE7       29.98S
MONTICELLO *   CLEAR     73  72  94 E3        29.96R
OELWEIN *      CLEAR     72  72 100 SE5       29.97S
WATERLOO       CLEAR     73  71  93 SE6       29.93S
$$

IAZ064-065-067-068-078-280600-
   EAST CENTRAL IOWA

CITY           SKY/WX    TMP DP  RH WIND       PRES   REMARKS
DAVENPORT      PTCLDY    73  70  90 CALM      29.96R
IOWA CITY      PTCLDY    74  72  93 E5        29.95S
MT. PLEASANT * PTCLDY    75  72  88 SE3       29.94S FOG
MUSCATINE *    CLEAR     73  72  94 CALM      29.94S
QUAD CITIES    PTCLDY    74  71  91 CALM      29.94S
$$

IAZ062-063-075>077-085>089-095>099-280600-
   SOUTHEAST IOWA

CITY           SKY/WX    TMP DP  RH WIND       PRES   REMARKS
BURLINGTON     MOCLDY    76  74  93 E3        29.93S
FAIRFIELD *    CLEAR     73  72  94 CALM      29.94S
FORT MADISON * CLEAR     73  73 100 CALM      29.95R FOG
KEOKUK *       CLEAR     75  73  94 CALM      29.93R FOG
OSKALOOSA *      N/A     72  70  94 SE3       29.94R FOG
CENTERVILLE *  CLEAR     73  73 100 SE7       29.95R
OTTUMWA        CLEAR     71  71 100 SE6       29.92S
WASHINGTON *   CLEAR     73  72  94 SE5       29.95S
$$

ABBREVIATIONS USED IN REMARKS
   TC - TEMPERATURES IN CELSIUS
  WCI - WIND CHILL INDEX
   HX - HEAT INDEX
  VSB - VISIBILITY
$$



USA.gov is the U.S. government's official web portal to all federal, state and local government web resources and services.